Fayetteville, NC

5:14 AM EDT on May 23, 2017 (GMT -0400)
Fayetteville Regional-Grannis

Weather History for KFAY - October, 2013

Change the Weather History Date:

Wednesday, October 2, 2013

  Actual Average Record
Temperature  
Mean Temperature 73 °F 68 °F  
Max Temperature 87 °F 79 °F 93 °F (1941)
Min Temperature 58 °F 58 °F 39 °F (1993)
Degree Days  
Heating Degree Days 0 1  
Month to date heating degree days 0 2  
Since 1 July heating degree days 0 11  
Cooling Degree Days 8 4  
Month to date cooling degree days 12 9  
Year to date cooling degree days 1856 1917  
Growing Degree Days 22 (Base 50)    
Moisture  
Dew Point 58 °F    
Average Humidity 63    
Maximum Humidity 90    
Minimum Humidity 35    
Precipitation  
Precipitation 0.00 in 0.18 in 4.16 in (1929)
Month to date precipitation 0.00 0.37  
Year to date precipitation 35.63 36.20  
Sea Level Pressure  
Sea Level Pressure 30.08 in    
Wind  
Wind Speed 4 mph (SW)    
Max Wind Speed 9 mph    
Max Gust Speed 13 mph    
Visibility 10 miles    
Events      
T = Trace of Precipitation, MM = Missing Value Source: NWS Daily Summary

Daily Weather History Graph

Daily Weather History Graph

Search for Another Location

Airport or City:

Trip Planner

Search our weather history database for the weather conditions in past years. The results will help you decide how hot, cold, wet, or windy it might be!

Date:

Astronomy

Oct. 02, 2013 Rise Set
Actual Time 7:11 AM EDT 6:57 PM EDT
Civil Twilight 6:45 AM EDT 7:22 PM EDT
Nautical Twilight 6:16 AM EDT 7:52 PM EDT
Astronomical Twilight 5:47 AM EDT 8:21 PM EDT
Moon 4:47 AM EDT (10/2) 5:29 PM EDT (10/2)
Length of Visible Light 12h 37m
Length of Day
11h 46m
Waning Crescent, 6% of the Moon is Illuminated
Oct 2
Waning Crescent
Oct 4
New
Oct 11
First Quarter
Oct 18
Full
Oct 26
Last Quarter

Hourly Weather History & Observations

Time (EDT) Temp. Heat Index Dew Point Humidity Pressure Visibility Wind Dir Wind Speed Gust Speed Precip Events Conditions
12:53 AM 64.0 °F - 57.9 °F 80% 30.08 in 10.0 mi SSW 6.9 mph - N/A   Clear
1:53 AM 63.0 °F - 57.9 °F 84% 30.08 in 10.0 mi SSW 4.6 mph - N/A   Clear
2:53 AM 62.1 °F - 57.0 °F 84% 30.08 in 10.0 mi SW 4.6 mph - N/A   Clear
3:53 AM 61.0 °F - 57.0 °F 87% 30.06 in 10.0 mi WSW 3.5 mph - N/A   Clear
4:53 AM 60.1 °F - 55.9 °F 86% 30.06 in 10.0 mi SW 3.5 mph - N/A   Clear
5:53 AM 59.0 °F - 55.9 °F 90% 30.07 in 9.0 mi SW 4.6 mph - N/A   Clear
6:53 AM 59.0 °F - 55.9 °F 90% 30.09 in 8.0 mi SW 3.5 mph - N/A   Clear
7:53 AM 60.1 °F - 57.0 °F 90% 30.10 in 6.0 mi WSW 3.5 mph - N/A   Clear
8:53 AM 66.9 °F - 59.0 °F 76% 30.12 in 10.0 mi WSW 4.6 mph - N/A   Clear
9:53 AM 73.0 °F - 59.0 °F 61% 30.12 in 10.0 mi Calm Calm - N/A   Clear
10:53 AM 80.1 °F 80.9 °F 60.1 °F 50% 30.12 in 10.0 mi NNW 3.5 mph - N/A   Clear
11:53 AM 82.9 °F 82.8 °F 59.0 °F 44% 30.10 in 10.0 mi Variable 3.5 mph - N/A   Clear
12:53 PM 84.9 °F 84.2 °F 57.9 °F 40% 30.09 in 10.0 mi Variable 5.8 mph - N/A   Partly Cloudy
1:53 PM 86.0 °F 84.7 °F 55.9 °F 36% 30.06 in 10.0 mi NE 3.5 mph - N/A   Mostly Cloudy
2:53 PM 84.9 °F 83.7 °F 55.9 °F 37% 30.05 in 10.0 mi NE 6.9 mph - N/A   Mostly Cloudy
3:53 PM 84.0 °F 83.0 °F 55.9 °F 38% 30.04 in 10.0 mi NNW 4.6 mph - N/A   Scattered Clouds
4:53 PM 86.0 °F 84.9 °F 57.0 °F 37% 30.03 in 10.0 mi NNE 5.8 mph - N/A   Scattered Clouds
5:53 PM 84.0 °F 83.5 °F 57.9 °F 41% 30.04 in 10.0 mi ESE 3.5 mph - N/A   Partly Cloudy
6:53 PM 78.1 °F - 60.1 °F 54% 30.05 in 10.0 mi SE 3.5 mph - N/A   Clear
7:53 PM 75.9 °F - 61.0 °F 60% 30.06 in 10.0 mi Calm Calm - N/A   Clear
8:53 PM 72.0 °F - 60.1 °F 66% 30.06 in 10.0 mi Calm Calm - N/A   Clear
9:53 PM 70.0 °F - 61.0 °F 73% 30.08 in 10.0 mi SSE 5.8 mph - N/A   Mostly Cloudy
10:53 PM 70.0 °F - 62.1 °F 76% 30.10 in 10.0 mi South 5.8 mph - N/A   Clear
11:53 PM 69.1 °F - 61.0 °F 75% 30.11 in 10.0 mi SSW 6.9 mph - N/A   Clear